Time,TemperatureF,DewpointF,PressureIn,WindDirection,WindDirectionDegrees,WindSpeedMPH,WindSpeedGustMPH,Humidity,HourlyPrecipIn,Conditions,Clouds,dailyrainin,SoftwareType,DateUTC
2013-03-06 00:13:00,39.5,35.0,29.83,ESE,103,12.0,-999.0,84,-99.99,,,0.00,weatherlink.com 1.10,2013-03-06 05:13:00,
2013-03-06 00:28:00,39.6,35.0,29.83,ESE,102,16.0,-999.0,84,-99.99,,,0.00,weatherlink.com 1.10,2013-03-06 05:28:00,
2013-03-06 00:43:00,39.8,36.0,29.81,East,86,18.0,-999.0,85,-99.99,,,0.00,weatherlink.com 1.10,2013-03-06 05:43:00,
2013-03-06 00:58:00,39.9,36.0,29.80,East,101,11.0,-999.0,86,-99.99,,,0.00,weatherlink.com 1.10,2013-03-06 05:58:00,
2013-03-06 01:13:00,39.7,37.0,29.80,East,79,8.0,-999.0,88,-99.99,,,0.00,weatherlink.com 1.10,2013-03-06 06:13:00,
2013-03-06 01:28:00,39.7,37.0,29.80,East,88,7.0,-999.0,89,-99.99,,,0.01,weatherlink.com 1.10,2013-03-06 06:28:00,
2013-03-06 01:43:00,39.6,37.0,29.80,ESE,111,15.0,-999.0,90,-99.99,,,0.03,weatherlink.com 1.10,2013-03-06 06:43:00,
2013-03-06 01:58:00,39.6,37.0,29.79,East,98,9.0,-999.0,90,-99.99,,,0.05,weatherlink.com 1.10,2013-03-06 06:58:00,
2013-03-06 02:16:00,39.5,37.0,29.76,ESE,121,16.0,-999.0,91,-99.99,,,0.08,weatherlink.com 1.10,2013-03-06 07:16:00,
2013-03-06 02:29:00,39.6,37.0,29.76,East,91,19.0,-999.0,91,-99.99,,,0.09,weatherlink.com 1.10,2013-03-06 07:29:00,
2013-03-06 02:43:00,39.6,37.0,29.74,East,100,16.0,-999.0,91,-99.99,,,0.11,weatherlink.com 1.10,2013-03-06 07:43:00,
2013-03-06 02:58:00,39.7,37.0,29.74,East,97,15.0,-999.0,91,-99.99,,,0.13,weatherlink.com 1.10,2013-03-06 07:58:00,
2013-03-06 03:13:00,39.8,37.0,29.73,ENE,59,13.0,-999.0,91,-99.99,,,0.14,weatherlink.com 1.10,2013-03-06 08:13:00,
2013-03-06 03:28:00,39.8,37.0,29.73,East,91,17.0,-999.0,91,-99.99,,,0.14,weatherlink.com 1.10,2013-03-06 08:28:00,
2013-03-06 03:43:00,39.9,38.0,29.70,SE,130,8.0,-999.0,92,-99.99,,,0.16,weatherlink.com 1.10,2013-03-06 08:43:00,
2013-03-06 03:58:00,39.7,38.0,29.68,ESE,107,12.0,-999.0,92,-99.99,,,0.20,weatherlink.com 1.10,2013-03-06 08:58:00,
2013-03-06 04:13:00,40.0,38.0,29.68,ESE,103,12.0,-999.0,92,-99.99,,,0.23,weatherlink.com 1.10,2013-03-06 09:13:00,
2013-03-06 04:28:00,40.1,38.0,29.66,ENE,67,19.0,-999.0,91,-99.99,,,0.24,weatherlink.com 1.10,2013-03-06 09:28:00,
2013-03-06 04:43:00,40.2,38.0,29.65,East,101,22.0,-999.0,91,-99.99,,,0.24,weatherlink.com 1.10,2013-03-06 09:43:00,
2013-03-06 04:58:00,40.4,38.0,29.65,ENE,65,17.0,-999.0,91,-99.99,,,0.25,weatherlink.com 1.10,2013-03-06 09:58:00,
2013-03-06 05:13:00,40.5,38.0,29.63,East,90,15.0,-999.0,92,-99.99,,,0.25,weatherlink.com 1.10,2013-03-06 10:13:00,
2013-03-06 05:28:00,40.7,38.0,29.65,ESE,105,13.0,-999.0,91,-99.99,,,0.26,weatherlink.com 1.10,2013-03-06 10:28:00,
2013-03-06 05:43:00,40.6,39.0,29.66,East,82,20.0,-999.0,92,-99.99,,,0.27,weatherlink.com 1.10,2013-03-06 10:43:00,
2013-03-06 05:58:00,40.6,39.0,29.63,ESE,102,15.0,-999.0,93,-99.99,,,0.28,weatherlink.com 1.10,2013-03-06 10:58:00,
2013-03-06 06:13:00,40.7,39.0,29.63,ESE,113,14.0,-999.0,93,-99.99,,,0.30,weatherlink.com 1.10,2013-03-06 11:13:00,
2013-03-06 06:28:00,40.8,39.0,29.62,ESE,113,9.0,-999.0,93,-99.99,,,0.30,weatherlink.com 1.10,2013-03-06 11:28:00,
2013-03-06 06:43:00,40.9,39.0,29.62,SE,136,9.0,-999.0,93,-99.99,,,0.31,weatherlink.com 1.10,2013-03-06 11:43:00,
2013-03-06 06:58:00,41.0,39.0,29.61,East,97,9.0,-999.0,93,-99.99,,,0.31,weatherlink.com 1.10,2013-03-06 11:58:00,
2013-03-06 07:13:00,41.2,39.0,29.61,East,79,19.0,-999.0,93,-99.99,,,0.32,weatherlink.com 1.10,2013-03-06 12:13:00,
2013-03-06 07:28:00,41.5,40.0,29.60,ENE,69,21.0,-999.0,93,-99.99,,,0.33,weatherlink.com 1.10,2013-03-06 12:28:00,
2013-03-06 07:43:00,41.5,40.0,29.59,ESE,105,16.0,-999.0,93,-99.99,,,0.35,weatherlink.com 1.10,2013-03-06 12:43:00,
2013-03-06 07:58:00,41.6,40.0,29.59,ENE,78,26.0,-999.0,94,-99.99,,,0.37,weatherlink.com 1.10,2013-03-06 12:58:00,
2013-03-06 08:13:00,41.7,40.0,29.58,ENE,72,33.0,-999.0,94,-99.99,,,0.39,weatherlink.com 1.10,2013-03-06 13:13:00,
2013-03-06 08:28:00,41.8,40.0,29.57,East,87,30.0,-999.0,94,-99.99,,,0.41,weatherlink.com 1.10,2013-03-06 13:28:00,
2013-03-06 08:43:00,41.8,40.0,29.55,ENE,74,24.0,-999.0,94,-99.99,,,0.42,weatherlink.com 1.10,2013-03-06 13:43:00,
2013-03-06 08:58:00,41.4,40.0,29.54,East,94,26.0,-999.0,95,-99.99,,,0.43,weatherlink.com 1.10,2013-03-06 13:58:00,
2013-03-06 09:13:00,41.4,40.0,29.54,ENE,61,22.0,-999.0,95,-99.99,,,0.44,weatherlink.com 1.10,2013-03-06 14:13:00,
2013-03-06 09:28:00,41.3,40.0,29.52,East,94,21.0,-999.0,95,-99.99,,,0.44,weatherlink.com 1.10,2013-03-06 14:28:00,
2013-03-06 09:43:00,41.1,40.0,29.50,East,93,25.0,-999.0,95,-99.99,,,0.44,weatherlink.com 1.10,2013-03-06 14:43:00,
2013-03-06 09:58:00,41.1,40.0,29.49,East,88,30.0,-999.0,95,-99.99,,,0.45,weatherlink.com 1.10,2013-03-06 14:58:00,
2013-03-06 10:13:00,41.0,40.0,29.48,East,88,37.0,-999.0,95,-99.99,,,0.48,weatherlink.com 1.10,2013-03-06 15:13:00,
2013-03-06 10:28:00,41.2,40.0,29.47,East,79,29.0,-999.0,95,-99.99,,,0.51,weatherlink.com 1.10,2013-03-06 15:28:00,
2013-03-06 10:43:00,41.2,40.0,29.48,ENE,71,38.0,-999.0,95,-99.99,,,0.52,weatherlink.com 1.10,2013-03-06 15:43:00,
2013-03-06 10:58:00,41.4,40.0,29.48,ESE,104,23.0,-999.0,95,-99.99,,,0.53,weatherlink.com 1.10,2013-03-06 15:58:00,
2013-03-06 11:13:00,41.3,40.0,29.47,East,81,26.0,-999.0,94,-99.99,,,0.53,weatherlink.com 1.10,2013-03-06 16:13:00,
2013-03-06 11:28:00,41.1,40.0,29.47,ESE,112,23.0,-999.0,94,-99.99,,,0.54,weatherlink.com 1.10,2013-03-06 16:28:00,
2013-03-06 11:43:00,40.8,40.0,29.46,ESE,109,23.0,-999.0,95,-99.99,,,0.55,weatherlink.com 1.10,2013-03-06 16:43:00,
2013-03-06 11:58:00,40.8,40.0,29.46,East,80,19.0,-999.0,95,-99.99,,,0.59,weatherlink.com 1.10,2013-03-06 16:58:00,
2013-03-06 12:13:00,40.7,39.0,29.44,ENE,73,17.0,-999.0,95,-99.99,,,0.64,weatherlink.com 1.10,2013-03-06 17:13:00,
2013-03-06 12:28:00,40.7,39.0,29.44,ENE,69,21.0,-999.0,95,-99.99,,,0.69,weatherlink.com 1.10,2013-03-06 17:28:00,
2013-03-06 12:43:00,40.7,39.0,29.43,East,90,24.0,-999.0,95,-99.99,,,0.73,weatherlink.com 1.10,2013-03-06 17:43:00,
2013-03-06 12:58:00,40.7,39.0,29.43,East,92,34.0,-999.0,94,-99.99,,,0.75,weatherlink.com 1.10,2013-03-06 17:58:00,
2013-03-06 13:14:00,40.6,39.0,29.43,East,94,21.0,-999.0,94,-99.99,,,0.78,weatherlink.com 1.10,2013-03-06 18:14:00,
2013-03-06 13:28:00,40.6,39.0,29.43,ENE,64,22.0,-999.0,94,-99.99,,,0.81,weatherlink.com 1.10,2013-03-06 18:28:00,
2013-03-06 13:43:00,40.5,39.0,29.43,East,99,14.0,-999.0,94,-99.99,,,0.83,weatherlink.com 1.10,2013-03-06 18:43:00,
2013-03-06 13:58:00,40.2,39.0,29.44,East,84,18.0,-999.0,94,-99.99,,,0.87,weatherlink.com 1.10,2013-03-06 18:58:00,
2013-03-06 14:13:00,40.2,39.0,29.45,ESE,109,17.0,-999.0,94,-99.99,,,0.89,weatherlink.com 1.10,2013-03-06 19:13:00,
2013-03-06 14:28:00,40.3,39.0,29.45,East,88,28.0,-999.0,93,-99.99,,,0.92,weatherlink.com 1.10,2013-03-06 19:28:00,
2013-03-06 14:43:00,40.4,39.0,29.45,NNE,33,17.0,-999.0,93,-99.99,,,0.94,weatherlink.com 1.10,2013-03-06 19:43:00,
2013-03-06 14:58:00,40.6,39.0,29.47,NE,49,24.0,-999.0,93,-99.99,,,0.95,weatherlink.com 1.10,2013-03-06 19:58:00,
2013-03-06 15:13:00,40.5,39.0,29.48,NE,56,25.0,-999.0,93,-99.99,,,0.97,weatherlink.com 1.10,2013-03-06 20:13:00,
2013-03-06 15:28:00,40.3,38.0,29.49,East,82,28.0,-999.0,92,-99.99,,,1.00,weatherlink.com 1.10,2013-03-06 20:28:00,
2013-03-06 15:43:00,39.9,38.0,29.51,ENE,63,41.0,-999.0,92,-99.99,,,1.02,weatherlink.com 1.10,2013-03-06 20:43:00,
2013-03-06 15:58:00,39.1,37.0,29.52,NE,44,37.0,-999.0,93,-99.99,,,1.05,weatherlink.com 1.10,2013-03-06 20:58:00,
2013-03-06 16:13:00,38.8,37.0,29.52,NE,44,29.0,-999.0,92,-99.99,,,1.08,weatherlink.com 1.10,2013-03-06 21:13:00,
2013-03-06 16:28:00,38.8,37.0,29.54,NE,44,34.0,-999.0,92,-99.99,,,1.08,weatherlink.com 1.10,2013-03-06 21:28:00,
2013-03-06 16:43:00,38.6,37.0,29.55,ENE,62,30.0,-999.0,92,-99.99,,,1.10,weatherlink.com 1.10,2013-03-06 21:43:00,
2013-03-06 16:58:00,38.3,36.0,29.57,NE,53,35.0,-999.0,92,-99.99,,,1.10,weatherlink.com 1.10,2013-03-06 21:58:00,
2013-03-06 17:13:00,38.0,36.0,29.58,ENE,57,30.0,-999.0,92,-99.99,,,1.11,weatherlink.com 1.10,2013-03-06 22:13:00,
2013-03-06 17:28:00,37.7,36.0,29.60,ENE,59,37.0,-999.0,93,-99.99,,,1.12,weatherlink.com 1.10,2013-03-06 22:28:00,
2013-03-06 17:43:00,37.7,36.0,29.61,ENE,59,34.0,-999.0,92,-99.99,,,1.14,weatherlink.com 1.10,2013-03-06 22:43:00,
2013-03-06 17:58:00,37.9,36.0,29.62,NE,42,35.0,-999.0,93,-99.99,,,1.15,weatherlink.com 1.10,2013-03-06 22:58:00,
2013-03-06 18:13:00,38.0,36.0,29.64,NE,46,41.0,-999.0,93,-99.99,,,1.17,weatherlink.com 1.10,2013-03-06 23:13:00,
2013-03-06 18:28:00,37.9,36.0,29.65,NE,51,35.0,-999.0,92,-99.99,,,1.19,weatherlink.com 1.10,2013-03-06 23:28:00,
2013-03-06 18:43:00,37.8,36.0,29.66,NE,51,37.0,-999.0,93,-99.99,,,1.20,weatherlink.com 1.10,2013-03-06 23:43:00,
2013-03-06 18:58:00,37.7,36.0,29.68,NE,51,34.0,-999.0,93,-99.99,,,1.23,weatherlink.com 1.10,2013-03-06 23:58:00,
2013-03-06 19:13:00,37.5,36.0,29.69,NE,45,31.0,-999.0,93,-99.99,,,1.26,weatherlink.com 1.10,2013-03-07 00:13:00,
2013-03-06 19:28:00,37.7,36.0,29.70,NE,40,34.0,-999.0,93,-99.99,,,1.28,weatherlink.com 1.10,2013-03-07 00:28:00,
2013-03-06 19:43:00,37.4,36.0,29.71,NNE,27,26.0,-999.0,93,-99.99,,,1.31,weatherlink.com 1.10,2013-03-07 00:43:00,
2013-03-06 19:58:00,37.0,35.0,29.72,NNE,24,30.0,-999.0,93,-99.99,,,1.34,weatherlink.com 1.10,2013-03-07 00:58:00,
2013-03-06 20:13:00,37.0,36.0,29.73,NE,42,24.0,-999.0,94,-99.99,,,1.37,weatherlink.com 1.10,2013-03-07 01:13:00,
2013-03-06 20:28:00,37.3,36.0,29.73,NE,34,25.0,-999.0,94,-99.99,,,1.39,weatherlink.com 1.10,2013-03-07 01:28:00,
2013-03-06 20:43:00,37.8,36.0,29.74,ENE,61,30.0,-999.0,94,-99.99,,,1.40,weatherlink.com 1.10,2013-03-07 01:43:00,
2013-03-06 20:58:00,37.6,36.0,29.75,NE,46,30.0,-999.0,93,-99.99,,,1.42,weatherlink.com 1.10,2013-03-07 01:58:00,
2013-03-06 21:13:00,37.5,36.0,29.75,NE,38,24.0,-999.0,93,-99.99,,,1.42,weatherlink.com 1.10,2013-03-07 02:13:00,
2013-03-06 21:28:00,37.4,36.0,29.76,NNE,32,27.0,-999.0,93,-99.99,,,1.43,weatherlink.com 1.10,2013-03-07 02:28:00,
2013-03-06 21:43:00,37.1,36.0,29.77,NE,49,9.0,-999.0,94,-99.99,,,1.44,weatherlink.com 1.10,2013-03-07 02:43:00,
2013-03-06 21:58:00,36.8,35.0,29.77,North,9,17.0,-999.0,94,-99.99,,,1.46,weatherlink.com 1.10,2013-03-07 02:58:00,
2013-03-06 22:13:00,36.6,35.0,29.78,North,355,13.0,-999.0,94,-99.99,,,1.47,weatherlink.com 1.10,2013-03-07 03:13:00,
2013-03-06 22:28:00,36.6,35.0,29.79,NE,34,10.0,-999.0,94,-99.99,,,1.49,weatherlink.com 1.10,2013-03-07 03:28:00,
2013-03-06 22:43:00,36.6,35.0,29.80,NNE,28,13.0,-999.0,94,-99.99,,,1.50,weatherlink.com 1.10,2013-03-07 03:43:00,
2013-03-06 22:58:00,36.7,35.0,29.80,NE,40,12.0,-999.0,94,-99.99,,,1.52,weatherlink.com 1.10,2013-03-07 03:58:00,
2013-03-06 23:13:00,36.8,35.0,29.80,NNE,29,22.0,-999.0,94,-99.99,,,1.53,weatherlink.com 1.10,2013-03-07 04:13:00,
2013-03-06 23:28:00,36.9,35.0,29.80,NNE,28,14.0,-999.0,94,-99.99,,,1.54,weatherlink.com 1.10,2013-03-07 04:28:00,
2013-03-06 23:43:00,36.5,35.0,29.80,NNE,27,12.0,-999.0,94,-99.99,,,1.56,weatherlink.com 1.10,2013-03-07 04:43:00,
2013-03-06 23:58:00,36.0,35.0,29.80,NNE,24,15.0,-999.0,94,-99.99,,,1.57,weatherlink.com 1.10,2013-03-07 04:58:00,